Year,Month,Day,Hour,Minute,Value (Times are PST for temperature in C)
2020,07,04,00,00,12.20
2020,07,04,00,01,12.20
2020,07,04,00,02,12.20
2020,07,04,00,03,12.20
2020,07,04,00,04,12.20
2020,07,04,00,05,12.20
2020,07,04,00,06,12.20
2020,07,04,00,07,12.20
2020,07,04,00,08,12.20
2020,07,04,00,09,12.20
2020,07,04,00,10,12.20
2020,07,04,00,11,12.20
2020,07,04,00,12,12.20
2020,07,04,00,13,12.20
2020,07,04,00,14,12.20
2020,07,04,00,15,12.20
2020,07,04,00,16,12.20
2020,07,04,00,17,12.20
2020,07,04,00,18,12.20
2020,07,04,00,19,12.20
2020,07,04,00,20,12.20
2020,07,04,00,21,12.20
2020,07,04,00,22,12.20
2020,07,04,00,23,12.20
2020,07,04,00,24,12.20
2020,07,04,00,25,12.20
2020,07,04,00,26,12.20
2020,07,04,00,27,12.20
2020,07,04,00,28,12.20
2020,07,04,00,29,12.20
2020,07,04,00,30,12.20
2020,07,04,00,31,12.20
2020,07,04,00,32,12.20
2020,07,04,00,33,12.20
2020,07,04,00,34,12.20
2020,07,04,00,35,12.20
2020,07,04,00,36,12.20
2020,07,04,00,37,12.20
2020,07,04,00,38,12.20
2020,07,04,00,39,12.20
2020,07,04,00,40,12.20
2020,07,04,00,41,12.20
2020,07,04,00,42,12.20
2020,07,04,00,43,12.20
2020,07,04,00,44,12.20
2020,07,04,00,45,12.20
2020,07,04,00,46,12.20
2020,07,04,00,47,12.20
2020,07,04,00,48,12.20
2020,07,04,00,49,12.20
2020,07,04,00,50,12.20
2020,07,04,00,51,12.20
2020,07,04,00,52,12.20
2020,07,04,00,53,12.20
2020,07,04,00,54,12.20
2020,07,04,00,55,12.20
2020,07,04,00,56,12.20
2020,07,04,00,57,12.20
2020,07,04,00,58,12.20
2020,07,04,00,59,12.20
2020,07,04,01,00,12.20
2020,07,04,01,01,12.20
2020,07,04,01,02,12.20
2020,07,04,01,03,12.10
2020,07,04,01,04,12.10
2020,07,04,01,05,12.10
2020,07,04,01,06,12.10
2020,07,04,01,07,12.10
2020,07,04,01,08,12.10
2020,07,04,01,09,12.10
2020,07,04,01,10,12.10
2020,07,04,01,11,12.00
2020,07,04,01,12,12.00
2020,07,04,01,13,12.00
2020,07,04,01,14,12.00
2020,07,04,01,15,12.00
2020,07,04,01,16,12.00
2020,07,04,01,17,12.00
2020,07,04,01,18,12.00
2020,07,04,01,19,12.00
2020,07,04,01,20,12.00
2020,07,04,01,21,12.00
2020,07,04,01,22,12.00
2020,07,04,01,23,12.00
2020,07,04,01,24,12.10
2020,07,04,01,25,12.10
2020,07,04,01,26,12.10
2020,07,04,01,27,12.10
2020,07,04,01,28,12.10
2020,07,04,01,29,12.10
2020,07,04,01,30,12.10
2020,07,04,01,31,12.10
2020,07,04,01,32,12.10
2020,07,04,01,33,12.10
2020,07,04,01,34,12.10
2020,07,04,01,35,12.20
2020,07,04,01,36,12.20
2020,07,04,01,37,12.20
2020,07,04,01,38,12.20
2020,07,04,01,39,12.20
2020,07,04,01,40,12.20
2020,07,04,01,41,12.20
2020,07,04,01,42,12.20
2020,07,04,01,43,12.20
2020,07,04,01,44,12.20
2020,07,04,01,45,12.20
2020,07,04,01,46,12.20
2020,07,04,01,47,12.20
2020,07,04,01,48,12.20
2020,07,04,01,49,12.20
2020,07,04,01,50,12.20
2020,07,04,01,51,12.10
2020,07,04,01,52,12.10
2020,07,04,01,53,12.10
2020,07,04,01,54,12.10
2020,07,04,01,55,12.10
2020,07,04,01,56,12.10
2020,07,04,01,57,12.10
2020,07,04,01,58,12.10
2020,07,04,01,59,12.00
2020,07,04,02,00,12.00
2020,07,04,02,01,12.00
2020,07,04,02,02,12.00
2020,07,04,02,03,12.00
2020,07,04,02,04,12.00
2020,07,04,02,05,12.00
2020,07,04,02,06,12.00
2020,07,04,02,07,12.00
2020,07,04,02,08,12.00
2020,07,04,02,09,12.00
2020,07,04,02,10,12.00
2020,07,04,02,11,11.90
2020,07,04,02,12,12.00
2020,07,04,02,13,11.90
2020,07,04,02,14,11.90
2020,07,04,02,15,11.90
2020,07,04,02,16,11.90
2020,07,04,02,17,11.90
2020,07,04,02,18,11.90
2020,07,04,02,19,11.90
2020,07,04,02,20,11.90
2020,07,04,02,21,11.90
2020,07,04,02,22,11.90
2020,07,04,02,23,11.90
2020,07,04,02,24,11.90
2020,07,04,02,25,11.90
2020,07,04,02,26,11.90
2020,07,04,02,27,11.90
2020,07,04,02,28,11.90
2020,07,04,02,29,11.90
2020,07,04,02,30,11.90
2020,07,04,02,31,11.90
2020,07,04,02,32,11.90
2020,07,04,02,33,11.90
2020,07,04,02,34,11.90
2020,07,04,02,35,11.90
2020,07,04,02,36,11.90
2020,07,04,02,37,11.90
2020,07,04,02,38,11.90
2020,07,04,02,39,11.90
2020,07,04,02,40,11.90
2020,07,04,02,41,11.90
2020,07,04,02,42,11.90
2020,07,04,02,43,11.90
2020,07,04,02,44,11.90
2020,07,04,02,45,11.90
2020,07,04,02,46,11.90
2020,07,04,02,47,11.90
2020,07,04,02,48,11.90
2020,07,04,02,49,11.90
2020,07,04,02,50,11.90
2020,07,04,02,51,11.90
2020,07,04,02,52,11.90
2020,07,04,02,53,11.90
2020,07,04,02,54,11.90
2020,07,04,02,55,11.90
2020,07,04,02,56,11.90
2020,07,04,02,57,11.90
2020,07,04,02,58,11.90
2020,07,04,02,59,11.90
2020,07,04,03,00,11.90
2020,07,04,03,01,11.80
2020,07,04,03,02,11.80
2020,07,04,03,03,11.80
2020,07,04,03,04,11.80
2020,07,04,03,05,11.80
2020,07,04,03,06,11.80
2020,07,04,03,07,11.80
2020,07,04,03,08,11.80
2020,07,04,03,09,11.80
2020,07,04,03,10,11.80
2020,07,04,03,11,11.80
2020,07,04,03,12,11.80
2020,07,04,03,13,11.80
2020,07,04,03,14,11.80
2020,07,04,03,15,11.70
2020,07,04,03,16,11.70
2020,07,04,03,17,11.70
2020,07,04,03,18,11.70
2020,07,04,03,19,11.70
2020,07,04,03,20,11.70
2020,07,04,03,21,11.70
2020,07,04,03,22,11.70
2020,07,04,03,23,11.60
2020,07,04,03,24,11.60
2020,07,04,03,25,11.60
2020,07,04,03,26,11.60
2020,07,04,03,27,11.50
2020,07,04,03,28,11.50
2020,07,04,03,29,11.40
2020,07,04,03,30,11.40
2020,07,04,03,31,11.40
2020,07,04,03,32,11.40
2020,07,04,03,33,11.30
2020,07,04,03,34,11.30
2020,07,04,03,35,11.30
2020,07,04,03,36,11.30
2020,07,04,03,37,11.30
2020,07,04,03,38,11.30
2020,07,04,03,39,11.20
2020,07,04,03,40,11.20
2020,07,04,03,41,11.20
2020,07,04,03,42,11.20
2020,07,04,03,43,11.20
2020,07,04,03,44,11.20
2020,07,04,03,45,11.20
2020,07,04,03,46,11.20
2020,07,04,03,47,11.20
2020,07,04,03,48,11.20
2020,07,04,03,49,11.20
2020,07,04,03,50,11.20
2020,07,04,03,51,11.20
2020,07,04,03,52,11.20
2020,07,04,03,53,11.20
2020,07,04,03,54,11.20
2020,07,04,03,55,11.10
2020,07,04,03,56,11.10
2020,07,04,03,57,11.10
2020,07,04,03,58,11.10
2020,07,04,03,59,11.10
2020,07,04,04,00,11.10
2020,07,04,04,01,11.10
2020,07,04,04,02,11.10
2020,07,04,04,03,11.10
2020,07,04,04,04,11.00
2020,07,04,04,05,11.10
2020,07,04,04,06,11.00
2020,07,04,04,07,11.00
2020,07,04,04,08,11.00
2020,07,04,04,09,11.00
2020,07,04,04,10,11.00
2020,07,04,04,11,11.00
2020,07,04,04,12,11.00
2020,07,04,04,13,11.00
2020,07,04,04,14,11.00
2020,07,04,04,15,11.00
2020,07,04,04,16,11.10
2020,07,04,04,17,11.00
2020,07,04,04,18,11.00
2020,07,04,04,19,11.00
2020,07,04,04,20,11.10
2020,07,04,04,21,11.10
2020,07,04,04,22,11.10
2020,07,04,04,23,11.10
2020,07,04,04,24,11.10
2020,07,04,04,25,11.10
2020,07,04,04,26,11.10
2020,07,04,04,27,11.10
2020,07,04,04,28,11.10
2020,07,04,04,29,11.10
2020,07,04,04,30,11.10
2020,07,04,04,31,11.10
2020,07,04,04,32,11.10
2020,07,04,04,33,11.10
2020,07,04,04,34,11.10
2020,07,04,04,35,11.10
2020,07,04,04,36,11.10
2020,07,04,04,37,11.10
2020,07,04,04,38,11.00
2020,07,04,04,39,11.00
2020,07,04,04,40,11.00
2020,07,04,04,41,11.00
2020,07,04,04,42,11.00
2020,07,04,04,43,11.00
2020,07,04,04,44,11.00
2020,07,04,04,45,11.00
2020,07,04,04,46,11.00
2020,07,04,04,47,11.00
2020,07,04,04,48,11.00
2020,07,04,04,49,11.00
2020,07,04,04,50,11.00
2020,07,04,04,51,11.00
2020,07,04,04,52,10.90
2020,07,04,04,53,10.90
2020,07,04,04,54,10.90
2020,07,04,04,55,10.90
2020,07,04,04,56,10.90
2020,07,04,04,57,10.90
2020,07,04,04,58,10.90
2020,07,04,04,59,10.90
2020,07,04,05,00,10.90
2020,07,04,05,01,10.80
2020,07,04,05,02,10.80
2020,07,04,05,03,10.80
2020,07,04,05,04,10.80
2020,07,04,05,05,10.80
2020,07,04,05,06,10.80
2020,07,04,05,07,10.80
2020,07,04,05,08,10.80
2020,07,04,05,09,10.80
2020,07,04,05,10,10.80
2020,07,04,05,11,10.80
2020,07,04,05,12,10.70
2020,07,04,05,13,10.70
2020,07,04,05,14,10.70
2020,07,04,05,15,10.70
2020,07,04,05,16,10.70
2020,07,04,05,17,10.70
2020,07,04,05,18,10.70
2020,07,04,05,19,10.70
2020,07,04,05,20,10.70
2020,07,04,05,21,10.60
2020,07,04,05,22,10.60
2020,07,04,05,23,10.60
2020,07,04,05,24,10.60
2020,07,04,05,25,10.60
2020,07,04,05,26,10.60
2020,07,04,05,27,10.60
2020,07,04,05,28,10.50
2020,07,04,05,29,10.50
2020,07,04,05,30,10.50
2020,07,04,05,31,10.50
2020,07,04,05,32,10.50
2020,07,04,05,33,10.40
2020,07,04,05,34,10.40
2020,07,04,05,35,10.40
2020,07,04,05,36,10.40
2020,07,04,05,37,10.40
2020,07,04,05,38,10.30
2020,07,04,05,39,10.30
2020,07,04,05,40,10.30
2020,07,04,05,41,10.30
2020,07,04,05,42,10.30
2020,07,04,05,43,10.30
2020,07,04,05,44,10.20
2020,07,04,05,45,10.20
2020,07,04,05,46,10.20
2020,07,04,05,47,10.20
2020,07,04,05,48,10.20
2020,07,04,05,49,10.20
2020,07,04,05,50,10.20
2020,07,04,05,51,10.20
2020,07,04,05,52,10.20
2020,07,04,05,53,10.20
2020,07,04,05,54,10.20
2020,07,04,05,55,10.20
2020,07,04,05,56,10.20
2020,07,04,05,57,10.20
2020,07,04,05,58,10.20
2020,07,04,05,59,10.20
2020,07,04,06,00,10.20
2020,07,04,06,01,10.20
2020,07,04,06,02,10.30
2020,07,04,06,03,10.30
2020,07,04,06,04,10.30
2020,07,04,06,05,10.30
2020,07,04,06,06,10.30
2020,07,04,06,07,10.30
2020,07,04,06,08,10.30
2020,07,04,06,09,10.30
2020,07,04,06,10,10.20
2020,07,04,06,11,10.20
2020,07,04,06,12,10.20
2020,07,04,06,13,10.20
2020,07,04,06,14,10.20
2020,07,04,06,15,10.20
2020,07,04,06,16,10.20
2020,07,04,06,17,10.10
2020,07,04,06,18,10.10
2020,07,04,06,19,10.10
2020,07,04,06,20,10.10
2020,07,04,06,21,10.10
2020,07,04,06,22,10.10
2020,07,04,06,23,10.10
2020,07,04,06,24,10.10
2020,07,04,06,25,10.10
2020,07,04,06,26,10.10
2020,07,04,06,27,10.10
2020,07,04,06,28,10.10
2020,07,04,06,29,10.20
2020,07,04,06,30,10.20
2020,07,04,06,31,10.20
2020,07,04,06,32,10.20
2020,07,04,06,33,10.30
2020,07,04,06,34,10.30
2020,07,04,06,35,10.30
2020,07,04,06,36,10.30
2020,07,04,06,37,10.30
2020,07,04,06,38,10.30
2020,07,04,06,39,10.30
2020,07,04,06,40,10.40
2020,07,04,06,41,10.40
2020,07,04,06,42,10.40
2020,07,04,06,43,10.40
2020,07,04,06,44,10.40
2020,07,04,06,45,10.40
2020,07,04,06,46,10.50
2020,07,04,06,47,10.50
2020,07,04,06,48,10.60
2020,07,04,06,49,10.60
2020,07,04,06,50,10.70
2020,07,04,06,51,10.80
2020,07,04,06,52,10.80
2020,07,04,06,53,10.90
2020,07,04,06,54,10.90
2020,07,04,06,55,10.90
2020,07,04,06,56,10.90
2020,07,04,06,57,10.90
2020,07,04,06,58,10.90
2020,07,04,06,59,11.00
2020,07,04,07,00,11.00
2020,07,04,07,01,11.00
2020,07,04,07,02,11.10
2020,07,04,07,03,11.10
2020,07,04,07,04,11.10
2020,07,04,07,05,11.10
2020,07,04,07,06,11.20
2020,07,04,07,07,11.20
2020,07,04,07,08,11.20
2020,07,04,07,09,11.20
2020,07,04,07,10,11.20
2020,07,04,07,11,11.20
2020,07,04,07,12,11.20
2020,07,04,07,13,11.20
2020,07,04,07,14,11.30
2020,07,04,07,15,11.30
2020,07,04,07,16,11.40
2020,07,04,07,17,11.50
2020,07,04,07,18,11.60
2020,07,04,07,19,11.70
2020,07,04,07,20,11.70
2020,07,04,07,21,11.80
2020,07,04,07,22,11.80
2020,07,04,07,23,11.90
2020,07,04,07,24,12.00
2020,07,04,07,25,12.00
2020,07,04,07,26,12.10
2020,07,04,07,27,12.10
2020,07,04,07,28,12.20
2020,07,04,07,29,12.20
2020,07,04,07,30,12.30
2020,07,04,07,31,12.30
2020,07,04,07,32,12.40
2020,07,04,07,33,12.40
2020,07,04,07,34,12.50
2020,07,04,07,35,12.60
2020,07,04,07,36,12.60
2020,07,04,07,37,12.60
2020,07,04,07,38,12.70
2020,07,04,07,39,12.70
2020,07,04,07,40,12.70
2020,07,04,07,41,12.80
2020,07,04,07,42,12.80
2020,07,04,07,43,12.90
2020,07,04,07,44,12.90
2020,07,04,07,45,12.90
2020,07,04,07,46,13.00
2020,07,04,07,47,13.00
2020,07,04,07,48,13.10
2020,07,04,07,49,13.10
2020,07,04,07,50,13.20
2020,07,04,07,51,13.20
2020,07,04,07,52,13.20
2020,07,04,07,53,13.20
2020,07,04,07,54,13.20
2020,07,04,07,55,13.20
2020,07,04,07,56,13.30
2020,07,04,07,57,13.30
2020,07,04,07,58,13.30
2020,07,04,07,59,13.40
2020,07,04,08,00,13.40
2020,07,04,08,01,13.40
2020,07,04,08,02,13.50
2020,07,04,08,03,13.50
2020,07,04,08,04,13.50
2020,07,04,08,05,13.50
2020,07,04,08,06,13.50
2020,07,04,08,07,13.50
2020,07,04,08,08,13.60
2020,07,04,08,09,13.60
2020,07,04,08,10,13.60
2020,07,04,08,11,13.70
2020,07,04,08,12,13.70
2020,07,04,08,13,13.70
2020,07,04,08,14,13.70
2020,07,04,08,15,13.70
2020,07,04,08,16,13.70
2020,07,04,08,17,13.60
2020,07,04,08,18,13.60
2020,07,04,08,19,13.70
2020,07,04,08,20,13.80
2020,07,04,08,21,13.80
2020,07,04,08,22,13.90
2020,07,04,08,23,13.90
2020,07,04,08,24,13.90
2020,07,04,08,25,13.90
2020,07,04,08,26,13.80
2020,07,04,08,27,13.80
2020,07,04,08,28,13.80
2020,07,04,08,29,13.90
2020,07,04,08,30,13.90
2020,07,04,08,31,13.90
2020,07,04,08,32,13.90
2020,07,04,08,33,13.90
2020,07,04,08,34,14.00
2020,07,04,08,35,14.10
2020,07,04,08,36,14.20
2020,07,04,08,37,14.20
2020,07,04,08,38,14.20
2020,07,04,08,39,14.20
2020,07,04,08,40,14.20
2020,07,04,08,41,14.30
2020,07,04,08,42,14.30
2020,07,04,08,43,14.30
2020,07,04,08,44,14.30
2020,07,04,08,45,14.30
2020,07,04,08,46,14.30
2020,07,04,08,47,14.30
2020,07,04,08,48,14.30
2020,07,04,08,49,14.30
2020,07,04,08,50,14.30
2020,07,04,16,29,16.40
2020,07,04,16,30,16.50
2020,07,04,16,31,16.50
2020,07,04,16,32,16.50
2020,07,04,16,33,16.50
2020,07,04,16,34,16.50
2020,07,04,16,35,16.50
2020,07,04,16,36,16.50
2020,07,04,16,37,16.50
2020,07,04,16,38,16.50
2020,07,04,16,39,16.50
2020,07,04,16,40,16.50
2020,07,04,16,41,16.50
2020,07,04,16,42,16.50
2020,07,04,16,43,16.50
2020,07,04,16,44,16.50
2020,07,04,16,45,16.50
2020,07,04,16,46,16.40
2020,07,04,16,47,16.40
2020,07,04,16,48,16.40
2020,07,04,16,49,16.50
2020,07,04,16,50,16.50
2020,07,04,16,51,16.40
2020,07,04,16,52,16.40
2020,07,04,16,53,16.40
2020,07,04,16,54,16.40
2020,07,04,16,55,16.40
2020,07,04,16,56,16.50
2020,07,04,16,57,16.50
2020,07,04,16,58,16.60
2020,07,04,16,59,16.60
2020,07,04,17,00,16.60
2020,07,04,17,01,16.60
2020,07,04,17,02,16.60
2020,07,04,17,03,16.60
2020,07,04,17,04,16.60
2020,07,04,17,05,16.60
2020,07,04,17,06,16.60
2020,07,04,17,07,16.70
2020,07,04,17,08,16.60
2020,07,04,17,09,16.60
2020,07,04,17,10,16.60
2020,07,04,17,11,16.60
2020,07,04,17,12,16.60
2020,07,04,17,13,16.60
2020,07,04,17,14,16.60
2020,07,04,17,15,16.60
2020,07,04,17,16,16.60
2020,07,04,17,17,16.60
2020,07,04,17,18,16.60
2020,07,04,17,19,16.60
2020,07,04,17,20,16.60
2020,07,04,17,21,16.60
2020,07,04,17,22,16.60
2020,07,04,17,23,16.60
2020,07,04,17,24,16.50
2020,07,04,17,25,16.50
2020,07,04,17,26,16.40
2020,07,04,17,27,16.40
2020,07,04,17,28,16.50
2020,07,04,17,29,16.50
2020,07,04,17,30,16.50
2020,07,04,17,31,16.50
2020,07,04,17,32,16.50
2020,07,04,17,33,16.50
2020,07,04,17,34,16.50
2020,07,04,17,35,16.50
2020,07,04,17,36,16.50
2020,07,04,17,37,16.40
2020,07,04,17,38,16.40
2020,07,04,17,39,16.40
2020,07,04,17,40,16.40
2020,07,04,17,41,16.50
2020,07,04,17,42,16.50
2020,07,04,17,43,16.50
2020,07,04,17,44,16.50
2020,07,04,17,45,16.50
2020,07,04,17,46,16.50
2020,07,04,17,47,16.60
2020,07,04,17,48,16.60
2020,07,04,17,49,16.60
2020,07,04,17,50,16.60
2020,07,04,17,51,16.60
2020,07,04,17,52,16.60
2020,07,04,17,53,16.60
2020,07,04,17,54,16.60
2020,07,04,17,55,16.60
2020,07,04,17,56,16.60
2020,07,04,17,57,16.60
2020,07,04,17,58,16.60
2020,07,04,17,59,16.60
2020,07,04,18,00,16.60
2020,07,04,18,01,16.60
2020,07,04,18,02,16.60
2020,07,04,18,03,16.60
2020,07,04,18,04,16.60
2020,07,04,18,05,16.60
2020,07,04,18,06,16.60
2020,07,04,18,07,16.60
2020,07,04,18,08,16.60
2020,07,04,18,09,16.60
2020,07,04,18,10,16.60
2020,07,04,18,11,16.60
2020,07,04,18,12,16.60
2020,07,04,18,13,16.60
2020,07,04,18,14,16.60
2020,07,04,18,15,16.70
2020,07,04,18,16,16.70
2020,07,04,18,17,16.70
2020,07,04,18,18,16.70
2020,07,04,18,19,16.80
2020,07,04,18,20,16.80
2020,07,04,18,21,16.80
2020,07,04,18,22,16.80
2020,07,04,18,23,16.80
2020,07,04,18,24,16.80
2020,07,04,18,25,16.80
2020,07,04,18,26,16.80
2020,07,04,18,27,16.80
2020,07,04,18,28,16.80
2020,07,04,18,29,16.80
2020,07,04,18,30,16.80
2020,07,04,18,31,16.80
2020,07,04,18,32,16.80
2020,07,04,18,33,16.80
2020,07,04,18,34,16.80
2020,07,04,18,35,16.80
2020,07,04,18,36,16.80
2020,07,04,18,37,16.80
2020,07,04,18,38,16.80
2020,07,04,18,39,16.80
2020,07,04,18,40,16.80
2020,07,04,18,41,16.80
2020,07,04,18,42,16.80
2020,07,04,18,43,16.80
2020,07,04,18,44,16.80
2020,07,04,18,45,16.80
2020,07,04,18,46,16.80
2020,07,04,18,47,16.80
2020,07,04,18,48,16.80
2020,07,04,18,49,16.80
2020,07,04,18,50,16.80
2020,07,04,18,51,16.80
2020,07,04,18,52,16.80
2020,07,04,18,53,16.80
2020,07,04,18,54,16.80
2020,07,04,18,55,16.80
2020,07,04,18,56,16.80
2020,07,04,18,57,16.80
2020,07,04,18,58,16.80
2020,07,04,18,59,16.80
2020,07,04,19,00,16.80
2020,07,04,19,01,16.80
2020,07,04,19,02,16.80
2020,07,04,19,03,16.80
2020,07,04,19,04,16.80
2020,07,04,19,05,16.80
2020,07,04,19,06,16.80
2020,07,04,19,07,16.80
2020,07,04,19,08,16.80
2020,07,04,19,09,16.80
2020,07,04,19,10,16.80
2020,07,04,19,11,16.80
2020,07,04,19,12,16.80
2020,07,04,19,13,16.80
2020,07,04,19,14,16.80
2020,07,04,19,15,16.80
2020,07,04,19,16,16.80
2020,07,04,19,17,16.80
2020,07,04,19,18,16.80
2020,07,04,19,19,16.80
2020,07,04,19,20,16.80
2020,07,04,19,21,16.80
2020,07,04,19,22,16.80
2020,07,04,19,23,16.80
2020,07,04,19,24,16.80
2020,07,04,19,25,16.70
2020,07,04,19,26,16.70
2020,07,04,19,27,16.70
2020,07,04,19,28,16.70
2020,07,04,19,29,16.70
2020,07,04,19,30,16.70
2020,07,04,19,31,16.70
2020,07,04,19,32,16.70
2020,07,04,19,33,16.70
2020,07,04,19,34,16.70
2020,07,04,19,35,16.70
2020,07,04,19,36,16.70
2020,07,04,19,37,16.70
2020,07,04,19,38,16.70
2020,07,04,19,39,16.70
2020,07,04,19,40,16.70
2020,07,04,19,41,16.70
2020,07,04,19,42,16.70
2020,07,04,19,43,16.70
2020,07,04,19,44,16.70
2020,07,04,19,45,16.70
2020,07,04,19,46,16.70
2020,07,04,19,47,16.70
2020,07,04,19,48,16.70
2020,07,04,19,49,16.70
2020,07,04,19,50,16.70
2020,07,04,19,51,16.70
2020,07,04,19,52,16.70
2020,07,04,19,53,16.70
2020,07,04,19,54,16.70
2020,07,04,19,55,16.70
2020,07,04,19,56,16.70
2020,07,04,19,57,16.70
2020,07,04,19,58,16.70
2020,07,04,19,59,16.70
2020,07,04,20,00,16.70
2020,07,04,20,01,16.70
2020,07,04,20,02,16.70
2020,07,04,20,03,16.70
2020,07,04,20,04,16.70
2020,07,04,20,05,16.70
2020,07,04,20,06,16.70
2020,07,04,20,07,16.70
2020,07,04,20,08,16.70
2020,07,04,20,09,16.70
2020,07,04,20,10,16.70
2020,07,04,20,11,16.70
2020,07,04,20,12,16.70
2020,07,04,20,13,16.70
2020,07,04,20,14,16.70
2020,07,04,20,15,16.70
2020,07,04,20,16,16.70
2020,07,04,20,17,16.70
2020,07,04,20,18,16.70
2020,07,04,20,19,16.70
2020,07,04,20,20,16.80
2020,07,04,20,21,16.80
2020,07,04,20,22,16.80
2020,07,04,20,23,16.80
2020,07,04,20,24,16.80
2020,07,04,20,25,16.80
2020,07,04,20,26,16.80
2020,07,04,20,27,16.80
2020,07,04,20,28,16.80
2020,07,04,20,29,16.90
2020,07,04,20,30,16.80
2020,07,04,20,31,16.80
2020,07,04,20,32,16.80
2020,07,04,20,33,16.80
2020,07,04,20,34,16.80
2020,07,04,20,35,16.70
2020,07,04,20,36,16.70
2020,07,04,20,37,16.70
2020,07,04,20,38,16.70
2020,07,04,20,39,16.60
2020,07,04,20,40,16.60
2020,07,04,20,41,16.60
2020,07,04,20,42,16.50
2020,07,04,20,43,16.50
2020,07,04,20,44,16.40
2020,07,04,20,45,16.40
2020,07,04,20,46,16.30
2020,07,04,20,47,16.30
2020,07,04,20,48,16.20
2020,07,04,20,49,16.20
2020,07,04,20,50,16.20
2020,07,04,20,51,16.10
2020,07,04,20,52,16.10
2020,07,04,20,53,16.10
2020,07,04,20,54,16.10
2020,07,04,20,55,16.00
2020,07,04,20,56,16.00
2020,07,04,20,57,15.90
2020,07,04,20,58,15.90
2020,07,04,20,59,15.90
2020,07,04,21,00,15.90
2020,07,04,21,01,15.80
2020,07,04,21,02,15.80
2020,07,04,21,03,15.80
2020,07,04,21,04,15.80
2020,07,04,21,05,15.80
2020,07,04,21,06,15.80
2020,07,04,21,07,15.70
2020,07,04,21,08,15.70
2020,07,04,21,09,15.70
2020,07,04,21,10,15.70
2020,07,04,21,11,15.70
2020,07,04,21,12,15.60
2020,07,04,21,13,15.60
2020,07,04,21,14,15.60
2020,07,04,21,15,15.60
2020,07,04,21,16,15.50
2020,07,04,21,17,15.50
2020,07,04,21,18,15.50
2020,07,04,21,19,15.40
2020,07,04,21,20,15.40
2020,07,04,21,21,15.40
2020,07,04,21,22,15.40
2020,07,04,21,23,15.30
2020,07,04,21,24,15.30
2020,07,04,21,25,15.30
2020,07,04,21,26,15.20
2020,07,04,21,27,15.20
2020,07,04,21,28,15.20
2020,07,04,21,29,15.10
2020,07,04,21,30,15.10
2020,07,04,21,31,15.00
2020,07,04,21,32,15.00
2020,07,04,21,33,15.00
2020,07,04,21,34,14.90
2020,07,04,21,35,14.90
2020,07,04,21,36,14.90
2020,07,04,21,37,14.80
2020,07,04,21,38,14.80
2020,07,04,21,39,14.80
2020,07,04,21,40,14.70
2020,07,04,21,41,14.70
2020,07,04,21,42,14.70
2020,07,04,21,43,14.60
2020,07,04,21,44,14.60
2020,07,04,21,45,14.60
2020,07,04,21,46,14.60
2020,07,04,21,47,14.50
2020,07,04,21,48,14.50
2020,07,04,21,49,14.40
2020,07,04,21,50,14.40
2020,07,04,21,51,14.40
2020,07,04,21,52,14.30
2020,07,04,21,53,14.30
2020,07,04,21,54,14.30
2020,07,04,21,55,14.30
2020,07,04,21,56,14.20
2020,07,04,21,57,14.20
2020,07,04,21,58,14.20
2020,07,04,21,59,14.10
2020,07,04,22,00,14.10
2020,07,04,22,01,14.10
2020,07,04,22,02,14.00
2020,07,04,22,03,14.00
2020,07,04,22,04,13.90
2020,07,04,22,05,13.90
2020,07,04,22,06,13.90
2020,07,04,22,07,13.90
2020,07,04,22,08,13.80
2020,07,04,22,09,13.80
2020,07,04,22,10,13.80
2020,07,04,22,11,13.80
2020,07,04,22,12,13.70
2020,07,04,22,13,13.70
2020,07,04,22,14,13.70
2020,07,04,22,15,13.60
2020,07,04,22,16,13.60
2020,07,04,22,17,13.60
2020,07,04,22,18,13.60
2020,07,04,22,19,13.50
2020,07,04,22,20,13.50
2020,07,04,22,21,13.50
2020,07,04,22,22,13.40
2020,07,04,22,23,13.40
2020,07,04,22,24,13.40
2020,07,04,22,25,13.30
2020,07,04,22,26,13.30
2020,07,04,22,27,13.30
2020,07,04,22,28,13.30
2020,07,04,22,29,13.20
2020,07,04,22,30,13.20
2020,07,04,22,31,13.20
2020,07,04,22,32,13.20
2020,07,04,22,33,13.20
2020,07,04,22,34,13.10
2020,07,04,22,35,13.10
2020,07,04,22,36,13.10
2020,07,04,22,37,13.10
2020,07,04,22,38,13.00
2020,07,04,22,39,13.00
2020,07,04,22,40,12.90
2020,07,04,22,41,12.90
2020,07,04,22,42,12.90
2020,07,04,22,43,12.90
2020,07,04,22,44,12.90
2020,07,04,22,45,12.90
2020,07,04,22,46,12.80
2020,07,04,22,47,12.80
2020,07,04,22,48,12.80
2020,07,04,22,49,12.80
2020,07,04,22,50,12.80
2020,07,04,22,51,12.70
2020,07,04,22,52,12.70
2020,07,04,22,53,12.70
2020,07,04,22,54,12.70
2020,07,04,22,55,12.60
2020,07,04,22,56,12.60
2020,07,04,22,57,12.60
2020,07,04,22,58,12.60
2020,07,04,22,59,12.60
2020,07,04,23,00,12.50
2020,07,04,23,01,12.50
2020,07,04,23,02,12.40
2020,07,04,23,03,12.40
2020,07,04,23,04,12.40
2020,07,04,23,05,12.40
2020,07,04,23,06,12.40
2020,07,04,23,07,12.30
2020,07,04,23,08,12.30
2020,07,04,23,09,12.30
2020,07,04,23,10,12.30
2020,07,04,23,11,12.20
2020,07,04,23,12,12.20
2020,07,04,23,13,12.20
2020,07,04,23,14,12.20
2020,07,04,23,15,12.10
2020,07,04,23,16,12.10
2020,07,04,23,17,12.10
2020,07,04,23,18,12.10
2020,07,04,23,19,12.00
2020,07,04,23,20,12.00
2020,07,04,23,21,12.00
2020,07,04,23,22,11.90
2020,07,04,23,23,11.90
2020,07,04,23,24,11.90
2020,07,04,23,25,11.90
2020,07,04,23,26,11.90
2020,07,04,23,27,11.80
2020,07,04,23,28,11.80
2020,07,04,23,29,11.80
2020,07,04,23,30,11.80
2020,07,04,23,31,11.80
2020,07,04,23,32,11.80
2020,07,04,23,33,11.80
2020,07,04,23,34,11.70
2020,07,04,23,35,11.70
2020,07,04,23,36,11.70
2020,07,04,23,37,11.70
2020,07,04,23,38,11.70
2020,07,04,23,39,11.70
2020,07,04,23,40,11.70
2020,07,04,23,41,11.70
2020,07,04,23,42,11.60
2020,07,04,23,43,11.70
2020,07,04,23,44,11.60
2020,07,04,23,45,11.60
2020,07,04,23,46,11.60
2020,07,04,23,47,11.60
2020,07,04,23,48,11.60
2020,07,04,23,49,11.50
2020,07,04,23,50,11.50
2020,07,04,23,51,11.50
2020,07,04,23,52,11.40
2020,07,04,23,53,11.40
2020,07,04,23,54,11.40
2020,07,04,23,55,11.40
2020,07,04,23,56,11.40
2020,07,04,23,57,11.30
2020,07,04,23,58,11.30
2020,07,04,23,59,11.30
